Waarnemingen

Advertentie
Mijn weer
Dax, Frankrijk (7603): temperatuur & dauwpunt: 28.11.2020 00:00:00 - 04.12.2020 00:00:00 (CET)Dax, Frankrijk (7603): temperatuur 5cm: 28.11.2020 00:00:00 - 04.12.2020 00:00:00 (CET)Dax, Frankrijk (7603): temperatuur -20cm & temperatuur -100cm: 28.11.2020 00:00:00 - 04.12.2020 00:00:00 (CET)Dax, Frankrijk (7603): windsnelheid & windstoten: 28.11.2020 00:00:00 - 04.12.2020 00:00:00 (CET)Dax, Frankrijk (7603): windrichting: 28.11.2020 00:00:00 - 04.12.2020 00:00:00 (CET)Dax, Frankrijk (7603): luchtdruk: 28.11.2020 00:00:00 - 04.12.2020 00:00:00 (CET)Dax, Frankrijk (7603): zicht: 28.11.2020 00:00:00 - 04.12.2020 00:00:00 (CET)Dax, Frankrijk (7603): Zonneschijnduur: 28.11.2020 00:00:00 - 04.12.2020 00:00:00 (CET)Dax, Frankrijk (7603): neerslag: 28.11.2020 00:00:00 - 04.12.2020 00:00:00 (CET)
Datum & Tijd tt [°C] td [°C] tt 5cm [°C] tt -20cm [°C] tt -100cm [°C] ff [km/u] ff [kn] fx [km/u] fx [kn] dd ppp [hPa] vv [km] sd [min] rr [mm]
04.12.2020 00:00:00 - - - - - - - - - - - - - -
03.12.2020 23:00:00 12,1 3,3 9,1 11,3 14,0 21 11 34 19 ZW 993,2 25 0 0,0
03.12.2020 22:00:00 11,3 3,6 8,8 11,3 14,0 16 9 27 15 ZZW 993,4 39 0 0,0
03.12.2020 21:00:00 10,8 3,8 8,7 11,3 14,0 14 8 42 23 Z 995,0 23 0 0,0
03.12.2020 20:00:00 11,7 3,2 7,6 11,3 14,0 26 14 46 25 ZZW 996,5 36 0 0,0
03.12.2020 19:00:00 11,4 3,2 7,7 11,3 14,0 25 13 41 22 ZZW 998,0 10 0 0,0
03.12.2020 18:00:00 12,2 2,9 10,7 11,2 14,0 19 10 33 18 ZZW 998,9 39 0 0,0
03.12.2020 17:00:00 12,2 4,4 10,9 11,2 14,0 17 9 29 16 ZZW 1000,3 41 0 0,0
03.12.2020 16:00:00 12,7 5,1 12,2 11,1 14,0 18 10 32 17 ZZW 1001,2 40 0 0,0
03.12.2020 15:00:00 13,8 5,7 13,7 11,0 14,0 19 11 39 21 ZW 1002,5 40 34 0,0
03.12.2020 14:00:00 13,2 6,1 13,1 11,0 14,0 22 12 35 19 ZW 1004,3 40 21 0,0
03.12.2020 13:00:00 12,9 6,5 12,7 10,9 14,1 21 11 32 17 WZW 1006,5 40 28 0,0
03.12.2020 12:00:00 12,6 7,7 10,6 10,9 14,0 15 8 31 17 ZW 1007,9 30 44 0,0
03.12.2020 11:00:00 10,5 8,1 9,1 10,9 14,0 15 8 27 15 ZZW 1009,4 32 2 0,0
03.12.2020 10:00:00 9,2 8,3 8,1 10,9 14,0 15 8 27 14 ZZW 1010,7 1,8 0 0,6
03.12.2020 09:00:00 8,3 7,4 7,4 10,9 14,0 12 6 24 13 ZZW 1011,5 2,9 0 0,2
03.12.2020 08:00:00 7,9 7,0 6,7 10,9 14,1 12 6 25 13 ZZW 1012,1 4,0 0 1,0
03.12.2020 07:00:00 7,4 5,9 6,2 10,9 14,1 10 5 22 12 Z 1013,1 4,8 0 0,2
03.12.2020 06:00:00 7,5 5,6 4,9 11,0 14,1 13 7 24 13 ZZW 1013,7 18 0 0,0
03.12.2020 05:00:00 6,5 4,2 3,1 11,0 14,1 10 5 15 8 Z 1015,0 17 0 0,0
03.12.2020 04:00:00 6,1 3,4 3,6 11,0 14,1 6 3 21 11 Z 1015,9 21 0 0,0
03.12.2020 03:00:00 6,4 3,7 5,1 11,1 14,1 13 7 19 10 Z 1016,7 19 0 0,0
03.12.2020 02:00:00 6,2 3,5 4,3 11,1 14,1 10 5 15 8 Z 1017,8 17 0 0,0
03.12.2020 01:00:00 5,6 3,3 0,4 11,1 14,1 6 4 11 6 Z 1018,6 16 0 0,0
03.12.2020 00:00:00 4,7 2,9 -0,1 11,2 14,1 6 4 10 5 Z 1019,1 13 0 0,0
02.12.2020 23:00:00 5,3 3,5 1,5 11,2 14,1 6 3 10 5 Z 1019,6 10 0 0,0
02.12.2020 22:00:00 5,7 4,3 2,7 11,2 14,1 5 3 12 7 Z 1020,5 8 0 0,0
02.12.2020 21:00:00 6,4 4,9 5,3 11,2 14,1 6 4 11 6 Z 1020,7 8 0 0,0
02.12.2020 20:00:00 6,5 5,0 5,8 11,2 14,1 6 4 8 5 Z 1020,7 7 0 0,0
02.12.2020 19:00:00 7,4 4,2 5,9 11,2 14,1 3 1 10 5 WZW 1020,6 7 0 0,2
02.12.2020 18:00:00 7,8 3,6 4,1 11,1 14,1 6 3 8 5 ZZW 1020,4 14 0 0,0
02.12.2020 17:00:00 8,5 3,3 6,2 11,1 14,1 3 2 11 6 WZW 1020,7 20 13 0,0
02.12.2020 16:00:00 9,2 2,5 8,7 10,9 14,1 8 4 16 8 WNW 1020,7 20 14 0,0
02.12.2020 15:00:00 9,7 3,0 12,3 10,9 14,2 8 4 17 9 NW 1020,5 20 27 0,0
02.12.2020 14:00:00 10,0 4,8 11,3 10,8 14,1 5 3 13 7 WNW 1020,6 15 33 0,0
02.12.2020 13:00:00 8,7 5,8 12,8 10,8 14,1 5 3 13 7 W 1021,1 13 44 0,0
02.12.2020 12:00:00 7,4 5,4 10,7 10,8 14,2 4 2 10 5 NW 1021,6 8 56 0,0
02.12.2020 11:00:00 6,8 5,7 4,0 10,9 14,1 3 2 12 6 ZW 1021,9 6 52 0,0
02.12.2020 10:00:00 3,9 3,8 2,0 10,9 14,2 7 4 12 7 Z 1022,1 3,0 4 0,0
02.12.2020 09:00:00 2,9 2,6 2,0 11,0 14,2 8 4 9 5 ZO 1021,7 4,0 0 0,0
02.12.2020 08:00:00 2,3 2,0 0,1 11,1 14,2 4 2 7 4 Z 1021,5 3,0 0 0,0
02.12.2020 07:00:00 1,9 1,5 -2,0 11,1 14,2 0 0 5 3 N 1021,6 3,0 0 0,0
02.12.2020 06:00:00 1,7 1,3 -2,5 11,2 14,2 0 0 4 2 N 1021,6 1,4 0 0,0
02.12.2020 05:00:00 2,1 1,7 -1,6 11,3 14,2 0 0 4 2 N 1021,7 0,8 0 0,0
02.12.2020 04:00:00 2,7 2,0 -1,7 11,4 14,2 0 0 6 3 N 1022,1 2,6 0 0,0
02.12.2020 03:00:00 3,5 2,6 -1,2 11,4 14,2 0 0 6 4 N 1022,3 3,0 0 0,0
02.12.2020 02:00:00 4,5 3,5 -0,3 11,4 14,2 3 2 8 4 N 1022,1 6 0 0,0
02.12.2020 01:00:00 5,5 4,3 2,1 11,4 14,2 4 2 9 5 N 1022,4 8 0 0,0
02.12.2020 00:00:00 6,5 5,0 3,6 11,4 14,2 4 2 16 9 NNO 1022,5 9 0 0,0
01.12.2020 23:00:00 7,5 5,6 5,0 11,4 14,2 7 4 25 13 NNO 1022,2 10 0 0,0
01.12.2020 22:00:00 8,8 7,9 7,8 11,4 14,2 6 3 15 8 NNO 1022,1 8 0 0,0
01.12.2020 21:00:00 9,1 8,3 8,5 11,3 14,2 5 3 12 7 NNO 1021,6 12 0 0,0
01.12.2020 20:00:00 9,3 8,4 8,4 11,3 14,2 6 4 22 12 NNO 1021,6 27 0 0,0
01.12.2020 19:00:00 9,7 8,6 9,3 11,3 14,2 13 7 36 19 NNO 1021,5 3,7 0 0,2
01.12.2020 18:00:00 11,4 10,3 10,7 11,2 14,2 7 4 20 11 NW 1020,9 5 0 1,2
01.12.2020 17:00:00 12,6 8,7 11,6 11,1 14,3 12 7 20 11 ZW 1021,2 9 0 0,0
01.12.2020 16:00:00 12,8 7,5 12,7 11,0 14,3 13 7 20 11 WZW 1021,9 12 0 0,0
01.12.2020 15:00:00 12,8 8,9 13,9 11,0 14,3 10 5 16 8 WZW 1022,9 15 0 0,0
01.12.2020 14:00:00 11,1 9,0 11,5 10,9 14,3 9 5 14 8 W 1023,8 10 16 0,0
01.12.2020 13:00:00 8,5 8,1 9,0 10,9 14,3 8 5 12 7 ZZW 1024,4 4,0 0 0,0
01.12.2020 12:00:00 6,1 5,8 7,0 10,9 14,3 2 1 11 6 NW 1025,9 3,0 0 0,0
01.12.2020 11:00:00 4,6 4,3 4,7 11,0 14,3 3 2 8 4 Z 1026,4 3,0 0 0,0
01.12.2020 10:00:00 2,6 2,3 0,8 11,1 14,3 4 2 12 7 ZZO 1026,7 2,2 0 0,0
01.12.2020 09:00:00 1,0 0,7 -1,2 11,1 14,3 3 1 15 8 N 1026,9 0,4 0 0,0
01.12.2020 08:00:00 0,7 0,3 -1,8 11,2 14,3 4 2 5 3 ZZO 1026,4 0,3 0 0,0
01.12.2020 07:00:00 0,7 0,3 -3,2 11,3 14,3 0 0 3 2 N 1026,7 1,0 0 0,0
01.12.2020 06:00:00 1,0 0,6 -3,1 11,3 14,3 0 0 4 2 N 1026,8 3,0 0 0,0
01.12.2020 05:00:00 1,4 1,0 -1,8 11,4 14,3 4 2 5 3 ZZO 1027,0 0,8 0 0,0
01.12.2020 04:00:00 1,7 1,1 -1,8 11,5 14,2 3 2 7 4 NNW 1027,4 1,8 0 0,0
01.12.2020 03:00:00 2,9 2,3 -1,5 11,5 14,2 0 0 6 3 N 1027,3 3,5 0 0,0
01.12.2020 02:00:00 4,1 3,5 -0,5 11,5 14,3 3 2 5 3 ONO 1027,1 4,2 0 0,0
01.12.2020 01:00:00 5,2 4,6 0,7 11,6 14,3 0 0 4 2 N 1027,3 1,4 0 0,0
01.12.2020 00:00:00 5,8 5,4 5,7 11,7 14,2 0 0 9 5 N 1027,4 3,9 0 0,0
30.11.2020 23:00:00 5,9 5,5 3,0 11,7 14,3 0 0 4 2 N 1027,1 2,0 0 0,0
30.11.2020 22:00:00 4,3 3,7 -0,5 11,7 14,3 2 1 7 4 Z 1027,0 1,5 0 0,0
30.11.2020 21:00:00 5,4 4,7 -0,8 11,7 14,3 5 3 8 4 N 1026,8 1,2 0 0,0
30.11.2020 20:00:00 6,5 5,6 0,9 11,8 14,3 3 1 12 6 Z 1026,3 2,5 0 0,0
30.11.2020 19:00:00 7,0 5,8 0,8 11,7 14,3 8 5 10 5 ZZW 1026,1 6 0 0,0
30.11.2020 18:00:00 8,8 7,2 3,3 11,7 14,3 3 2 10 6 WNW 1025,7 4,8 3 0,0
30.11.2020 17:00:00 10,9 8,8 9,8 11,6 14,3 8 4 12 7 ZW 1025,0 6 53 0,0
30.11.2020 16:00:00 11,7 9,6 14,2 11,6 14,3 5 3 9 5 W 1024,7 5 29 0,0
30.11.2020 15:00:00 10,5 8,9 12,8 11,5 14,3 2 1 5 3 WZW 1024,6 5 13 0,0
30.11.2020 14:00:00 8,2 7,1 11,4 11,5 14,3 2 1 9 5 - 1024,7 4,0 0 0,0
30.11.2020 13:00:00 7,0 6,6 10,3 11,5 14,3 2 1 9 5 NO 1024,9 2,9 0 0,0
30.11.2020 12:00:00 5,4 5,1 8,9 11,5 14,3 4 2 10 5 NO 1025,3 0,4 3 0,0
30.11.2020 11:00:00 4,6 4,3 5,0 11,5 14,3 4 2 8 4 ONO 1025,3 0,4 0 0,0
30.11.2020 10:00:00 3,8 3,4 3,1 11,6 14,3 5 3 10 6 ONO 1024,6 0,8 17 0,0
30.11.2020 09:00:00 3,4 3,0 -0,2 11,6 14,3 2 1 4 2 ZO 1024,1 0,6 18 0,0
30.11.2020 08:00:00 3,4 2,8 -0,1 11,7 14,3 2 1 11 6 ZZO 1023,3 1,8 0 0,0
30.11.2020 07:00:00 4,1 3,5 2,5 11,7 14,3 7 4 11 6 NO 1022,8 3,4 0 0,0
30.11.2020 06:00:00 4,6 4,0 0,5 11,8 14,4 4 2 13 7 NNO 1022,1 7 0 0,0
30.11.2020 05:00:00 4,7 4,1 1,4 11,8 14,4 4 2 13 7 O 1021,5 8 0 0,0
30.11.2020 04:00:00 5,0 4,4 1,5 11,9 14,3 6 3 10 5 ONO 1021,5 6 0 0,0
30.11.2020 03:00:00 5,2 4,8 0,4 12,0 14,4 4 2 8 5 NO 1021,2 5 0 0,0
30.11.2020 02:00:00 4,7 4,1 1,0 12,0 14,4 2 1 7 4 ZZO 1020,8 0,3 0 0,0
30.11.2020 01:00:00 6,6 6,3 1,9 12,1 14,3 4 2 10 5 NO 1020,6 3,7 0 0,0
30.11.2020 00:00:00 7,6 7,2 1,4 12,2 14,4 6 3 10 5 NO 1020,1 3,1 0 0,0
29.11.2020 23:00:00 6,6 5,7 1,8 12,2 14,4 0 0 4 2 N 1019,8 3,3 0 0,0
29.11.2020 22:00:00 7,4 6,5 2,6 12,2 14,4 0 0 6 3 N 1019,4 3,2 0 0,0
29.11.2020 21:00:00 8,9 7,8 3,3 12,2 14,4 2 1 5 3 N 1019,0 2,7 0 0,0
29.11.2020 20:00:00 9,8 8,2 3,7 12,3 14,4 0 0 4 2 N 1018,5 7 0 0,0
29.11.2020 19:00:00 11,3 8,7 4,5 12,2 14,4 0 0 5 3 N 1018,0 7 0 0,0
29.11.2020 18:00:00 13,0 8,3 6,6 12,1 14,4 3 2 6 3 Z 1017,3 26 0 0,0
29.11.2020 17:00:00 16,2 9,6 12,1 12,0 14,4 4 2 8 5 O 1016,8 19 22 0,0
29.11.2020 16:00:00 17,2 9,6 22,1 11,9 14,4 4 2 10 5 NO 1016,5 13 60 0,0
29.11.2020 15:00:00 17,4 9,8 23,7 11,7 14,4 0 0 5 3 N 1016,3 25 60 0,0
29.11.2020 14:00:00 15,9 11,1 21,9 11,8 14,4 0 0 5 3 N 1016,5 20 47 0,0
29.11.2020 13:00:00 14,3 11,6 19,1 11,7 14,4 0 0 7 4 N 1016,6 16 60 0,0
29.11.2020 12:00:00 11,8 10,5 12,7 11,7 14,4 4 2 12 6 O 1017,0 14 60 0,0
29.11.2020 11:00:00 8,1 8,0 8,5 11,8 14,4 5 3 9 5 ONO 1017,2 4,4 36 0,0
29.11.2020 10:00:00 6,6 6,5 6,1 11,8 14,4 0 0 10 5 N 1016,4 0,4 8 0,0
29.11.2020 09:00:00 5,8 5,5 4,7 11,8 14,4 3 1 18 10 ONO 1015,7 0,1 0 0,0
29.11.2020 08:00:00 5,6 5,3 2,8 11,9 14,4 7 4 14 7 NNO 1014,6 0,4 0 0,0
29.11.2020 07:00:00 5,0 4,7 3,1 11,9 14,4 4 2 10 5 OZO 1014,0 0,2 0 0,0
29.11.2020 06:00:00 5,0 4,6 2,0 12,0 14,4 6 3 9 5 O 1013,5 0,1 0 0,0
29.11.2020 05:00:00 7,1 6,5 1,5 12,0 14,4 6 4 10 6 ONO 1013,2 0,8 0 0,0
29.11.2020 04:00:00 7,2 6,5 2,0 12,0 14,4 3 1 14 8 O 1013,3 0,7 0 0,0
29.11.2020 03:00:00 7,8 7,0 2,5 12,2 14,4 2 1 10 6 O 1013,1 1,9 0 0,0
29.11.2020 02:00:00 9,0 7,8 5,4 12,2 14,4 5 3 16 9 NO 1012,7 8 0 0,0
29.11.2020 01:00:00 9,7 9,1 3,3 12,2 14,4 7 4 12 7 NO 1012,6 10 0 0,0
29.11.2020 00:00:00 9,2 8,0 4,2 12,2 14,4 0 0 14 8 N 1012,3 7 0 0,0
28.11.2020 23:00:00 10,9 9,5 7,4 12,2 14,4 7 4 10 6 NO 1011,6 11 0 0,0
28.11.2020 22:00:00 11,0 9,6 6,6 12,2 14,4 4 2 11 6 ONO 1011,3 11 0 0,0
28.11.2020 21:00:00 11,6 9,7 8,5 12,2 14,4 9 5 12 6 ONO 1010,5 15 0 0,0
28.11.2020 20:00:00 11,9 9,3 9,4 12,2 14,4 8 5 16 9 ONO 1009,7 19 0 0,0
28.11.2020 19:00:00 12,3 9,3 9,4 12,1 14,4 9 5 16 9 ONO 1009,2 9 0 0,0
28.11.2020 18:00:00 13,5 9,3 11,1 12,0 14,4 12 6 19 11 O 1008,6 41 4 0,0
28.11.2020 17:00:00 15,2 9,5 14,3 12,0 14,4 13 7 24 13 O 1007,8 34 60 0,0
28.11.2020 16:00:00 16,2 9,8 17,1 11,9 14,5 17 9 27 15 O 1007,2 26 60 0,0
28.11.2020 15:00:00 16,6 10,4 19,1 11,8 14,4 11 6 22 12 OZO 1006,9 25 60 0,0
28.11.2020 14:00:00 14,8 11,0 18,7 11,7 14,5 15 8 23 12 O 1006,9 18 60 0,0
28.11.2020 13:00:00 12,6 10,7 15,6 11,6 14,4 9 5 19 10 ONO 1007,2 14 49 0,0
28.11.2020 12:00:00 10,5 10,3 10,1 11,6 14,5 4 2 15 8 ONO 1007,5 3,7 14 0,0
28.11.2020 11:00:00 9,0 8,9 8,6 11,6 14,4 2 1 5 3 O 1007,6 1,2 37 0,0
28.11.2020 10:00:00 6,9 6,8 6,8 11,7 14,5 2 1 7 4 ZO 1007,8 0,1 2 0,0
28.11.2020 09:00:00 6,0 5,9 4,2 11,7 14,5 5 3 8 5 NO 1007,7 0,1 0 0,0
28.11.2020 08:00:00 6,0 5,9 4,9 11,7 14,4 4 2 6 4 NO 1007,5 0,1 0 0,0
28.11.2020 07:00:00 5,4 5,1 5,0 11,7 14,5 2 1 7 4 ONO 1007,3 0,1 0 0,0
28.11.2020 06:00:00 5,9 5,6 4,9 11,8 14,5 3 1 7 4 O 1007,3 0,1 0 0,0
28.11.2020 05:00:00 6,2 5,9 4,4 11,8 14,5 6 3 10 5 O 1007,4 0,1 0 0,0
28.11.2020 04:00:00 5,7 5,3 3,1 11,8 14,5 6 3 8 4 ZO 1007,9 0,1 0 0,0
28.11.2020 03:00:00 5,7 5,3 2,9 11,9 14,5 4 2 7 4 O 1008,2 0,1 0 0,0
28.11.2020 02:00:00 6,7 6,4 2,4 11,9 14,5 3 1 5 3 ONO 1008,2 0,3 0 0,0
28.11.2020 01:00:00 6,7 6,3 2,1 12,0 14,5 3 2 5 3 NO 1008,8 0,2 0 0,0
28.11.2020 00:00:00 8,0 6,9 3,1 12,0 14,5 2 1 10 5 ONO 1009,3 0,2 0 0,0

tt = temperatuur
td = dauwpunt
tt 5cm = temperatuur 5cm
tt -20cm = temperatuur -20cm
tt -100cm = temperatuur -100cm
ff = windsnelheid
fx = windstoten
dd = windrichting
ppp = luchtdruk
vv = zicht
sd = Zonneschijnduur
rr = neerslag

Weerstations in de omgeving